Regional Weather Roundup
Issued by NWS

Home | Current Version | Previous Version | Text Only | Print | Product List | Glossary On
Versions: 1 2 3 4 5 6 7 8 9 10 11 12 13 14 15 16 17 18 19 20 21 22 23 24 25 26 27 28 29 30 31 32 33 34 35 36 37 38 39 40 41 42 43 44 45 46 47
000
ASUS42 KFFC 250603
RWRGA
WEATHER ROUNDUP FOR GEORGIA
NATIONAL WEATHER SERVICE PEACHTREE CITY GA
100 AM EST THU DEC 25 2014

NOTE: "FAIR" INDICATES FEW OR NO CLOUDS BELOW 12,000 FEET WITH NO
SIGNIFICANT WEATHER AND/OR OBSTRUCTIONS TO VISIBILITY.

* = USE WITH CAUTION. THE STATIONS MARKED WITH AN ASTERISK MAY NOT
REPORT WEATHER SUCH AS PRECIPITATION, FOG, OR THUNDER AND ARE NOT
QUALITY CONTROLLED BY NWS.

THE REMARK "TC" DENOTES TEMPERATURE READING IN DEGREES CELSIUS.

GAZ001>058-250700-
NORTH GEORGIA

CITY           SKY/WX    TMP DP  RH WIND       PRES   REMARKS
ATLANTA        CLOUDY    47  38  71 W16G22    29.93R
6HR MIN TEMP:  47; 6HR MAX TEMP:  51;

ATHENS         CLOUDY    47  41  80 W8        29.89R
6HR MIN TEMP:  47; 6HR MAX TEMP:  53;

CHAMBLEE       CLOUDY    46  39  76 W16G28    29.92R
6HR MIN TEMP:  46; 6HR MAX TEMP:  49;

PEACHTREE CITY CLOUDY    47  36  65 W13G22    29.95S
6HR MIN TEMP:  47; 6HR MAX TEMP:  52;

ROME           MOCLDY    44  36  73 W12       29.95R
6HR MIN TEMP:  44; 6HR MAX TEMP:  48;

WEST ATLANTA   CLOUDY    46  34  62 W14G28    29.94R
6HR MIN TEMP:  46; 6HR MAX TEMP:  50; 6HR PCP: TRACE;

GAINESVILLE    CLOUDY    45  40  82 W12       29.89R
6HR MIN TEMP:  45; 6HR MAX TEMP:  49;

CARTERSVILLE   MOCLDY    45  36  70 VRB3      29.95R
6HR MIN TEMP:  45; 6HR MAX TEMP:  48;



CITY           SKY/WX    TMP DP  RH WIND       PRES   REMARKS
DALTON*        MOCLDY    43  41  93 NW6       29.93S
MARIETTA       CLOUDY    45  37  75 W16G24    29.93R
$$

GAZ059>098-102>109-250700-
CENTRAL GEORGIA

CITY           SKY/WX    TMP DP  RH WIND       PRES   REMARKS
AUGUSTA-BUSH   CLOUDY    53  42  66 W12       29.88R
6HR MIN TEMP:  53; 6HR MAX TEMP:  67; 6HR PCP: TRACE;

AUGUSTA-DANIEL CLOUDY    53  42  66 W10G20    29.88R
6HR MIN TEMP:  53; 6HR MAX TEMP:  67; 6HR PCP: TRACE;

COLUMBUS       CLOUDY    48  38  68 NW12      29.99R
6HR MIN TEMP:  48; 6HR MAX TEMP:  52;

MACON          CLOUDY    50  44  80 W9        29.94R
6HR MIN TEMP:  50; 6HR MAX TEMP:  59;

ROBINS AFB     CLOUDY    51  44  75 NW8       29.94R


CITY           SKY/WX    TMP DP  RH WIND       PRES   REMARKS
LAGRANGE*      CLOUDY    49  42  74 NW15G21   29.98R
SYLVANIA*      CLOUDY    57  53  86 W12G18    29.88R
MILLEDGEVILLE* CLOUDY    52  46  82 W8        29.92R
$$

GAZ099>101-110>166-250700-
SOUTH GEORGIA

CITY           SKY/WX    TMP DP  RH WIND       PRES   REMARKS
SAVANNAH       LGT RAIN  60  53  77 W14G25    29.87R
6HR MIN TEMP:  60; 6HR MAX TEMP:  67; 6HR PCP:  0.01;

VALDOSTA       CLOUDY    55  48  77 VRB7      29.99R
6HR MIN TEMP:  55; 6HR MAX TEMP:  67; 6HR PCP:  0.02;

ALMA           CLOUDY    54  46  74 W13       29.94R
6HR MIN TEMP:  54; 6HR MAX TEMP:  67; 6HR PCP:  0.01;

ST SIMONS      CLOUDY    64  60  87 W10       29.89R
6HR MIN TEMP:  63; 6HR MAX TEMP:  67; 6HR PCP: TRACE;

FT STEWART     CLOUDY    58  52  80 W14G20    29.88S
ALBANY         CLOUDY    53  46  77 W8        30.01R
HUNTER AFB     CLOUDY    61  60  97 W13       29.85R
MOODY AFB      CLOUDY    54  46  73 W9G20     29.98R
BRUNSWICK      CLOUDY    64  59  82 W15G24    29.91R


CITY           SKY/WX    TMP DP  RH WIND       PRES   REMARKS
BAINBRIDGE*    CLOUDY    55  50  82 W7        30.02R
MOULTRIE*      CLOUDY    54  48  82 W5        30.00R
VIDALIA*       CLOUDY    54  46  76 W9G17     29.93R
WAYCROSS*      CLOUDY    59  52  76 NW17      29.94S
DOUGLAS*       CLOUDY    55  46  71 NW12      29.98R
$$


USA.gov is the U.S. government's official web portal to all federal, state and local government web resources and services.